YAOGAN-50 02 DEB

基本信息
目录编号:
100605
目录名称:
YAOGAN-50 02 DEB
国际标识:
2026-051AV
轨道中心:
EARTH
物体状态:
在轨
发射日期:
--
轨道信息
数据来源: 国际轨道数据
星历时间: 2026-09-03T11:42:04+0800
半长轴: 7314.688km
偏心率: 0.0041153
轨道倾角: 142.008°
近地点辐角: 14.380°
升交点赤经: 345.316°
平近点角: 345.809°
近地点: 906.448km
远地点: 966.654km
周期: 103.766分钟
每日圈数: 13.877431
详细信息
轨道高度:
LEO
数据来源:
AOE Integration Group
参考系:
TEME
时间系统:
UTC
历元类型:
SGP4
2D轨道图
3D轨道图
轨道高度分析图
轨道倾角分析图
轨道综合分析图
查看轨道综合分析图